Sussex, NJ

9:24 AM EST on November 20, 2019 (GMT -0500)
Sussex

Weather History for KFWN - September, 2019

Change the Weather History Date:

Monday, September 30, 2019

  Actual Average Record
Temperature  
Mean Temperature 60 °F -  
Max Temperature 66 °F 67 °F 84 °F (1953)
Min Temperature 53 °F 42 °F 30 °F (1951)
Degree Days  
Heating Degree Days 6    
Growing Degree Days 10 (Base 50)    
Moisture  
Dew Point 47 °F    
Average Humidity 63    
Maximum Humidity 90    
Minimum Humidity 45    
Precipitation  
Precipitation 0.00 in - - ()
Sea Level Pressure  
Sea Level Pressure 30.29 in    
Wind  
Wind Speed 5 mph ()    
Max Wind Speed 9 mph    
Max Gust Speed -    
Visibility 10.0 miles    
Events Rain    
Averages and records for this station are not official NWS values.
T = Trace of Precipitation, MM = Missing Value Source: Averaged Metar Reports

Daily Weather History Graph

Daily Weather History Graph

Search for Another Location

Airport or City:

Astronomy

Sep. 30, 2019 Rise Set
Actual Time 6:53 AM EDT 6:42 PM EDT
Civil Twilight 6:26 AM EDT 7:09 PM EDT
Nautical Twilight 5:54 AM EDT 7:41 PM EDT
Astronomical Twilight 5:21 AM EDT 8:14 PM EDT
Moon 8:55 AM EDT (9/30) 8:15 PM EDT (9/30)
Length of Visible Light 12h 43m
Length of Day
11h 48m
Waxing Crescent, 5% of the Moon is Illuminated
Sep 30
Waxing Crescent
Oct 5
First Quarter
Oct 13
Full
Oct 21
Last Quarter
Oct 27
New

Hourly Weather History & Observations

Time (EDT) Temp. Dew Point Humidity Pressure Visibility Wind Dir Wind Speed Gust Speed Precip Events Conditions
12:53 AM 57.9 °F 37.9 °F 47% 30.33 in 10.0 mi NNE 5.8 mph - N/A   Clear
1:53 AM 57.9 °F 37.0 °F 46% 30.34 in 10.0 mi NNE 5.8 mph - N/A   Clear
2:53 AM 57.0 °F 36.0 °F 45% 30.32 in 10.0 mi NNE 8.1 mph - N/A   Clear
3:53 AM 55.0 °F 36.0 °F 49% 30.32 in 10.0 mi NNE 6.9 mph - N/A   Clear
4:53 AM 55.0 °F 37.0 °F 51% 30.33 in 10.0 mi NNE 6.9 mph - N/A   Clear
5:53 AM 54.0 °F 37.0 °F 53% 30.34 in 10.0 mi NNE 8.1 mph - N/A   Clear
6:53 AM 53.1 °F 37.0 °F 55% 30.35 in 10.0 mi NNE 8.1 mph - N/A   Mostly Cloudy
7:53 AM 53.1 °F 39.0 °F 59% 30.37 in 10.0 mi NNE 9.2 mph - N/A   Overcast
8:53 AM 55.0 °F 41.0 °F 59% 30.36 in 10.0 mi NNE 8.1 mph - N/A   Overcast
9:53 AM 57.9 °F 42.1 °F 56% 30.36 in 10.0 mi NNE 6.9 mph - N/A   Overcast
10:53 AM 61.0 °F 43.0 °F 52% 30.35 in 10.0 mi North - - N/A   Overcast
11:18 AM 62.1 °F 44.1 °F 52% 30.34 in 10.0 mi NNE 4.6 mph - N/A   Overcast
11:53 AM 64.9 °F 45.0 °F 48% 30.33 in 10.0 mi ENE 4.6 mph - N/A   Overcast
12:53 PM 64.9 °F 46.9 °F 52% 30.31 in 10.0 mi Calm Calm - N/A   Overcast
1:53 PM 66.0 °F 48.9 °F 54% 30.29 in 10.0 mi SSE 4.6 mph - N/A   Overcast
2:53 PM 64.0 °F 50.0 °F 60% 30.27 in 10.0 mi SW 4.6 mph - N/A   Overcast
3:53 PM 64.9 °F 51.1 °F 61% 30.26 in 10.0 mi Calm Calm - N/A   Overcast
4:53 PM 62.1 °F 55.0 °F 78% 30.24 in 10.0 mi West 3.5 mph - 0.00 in   Overcast
5:53 PM 62.1 °F 57.0 °F 84% 30.24 in 10.0 mi Calm Calm - N/A   Overcast
6:53 PM 61.0 °F 57.9 °F 90% 30.23 in 10.0 mi Calm Calm - 0.00 in   Overcast
7:53 PM 63.0 °F 54.0 °F 72% 30.22 in 10.0 mi Variable 4.6 mph - N/A   Overcast
8:22 PM 63.0 °F 55.0 °F 75% 30.23 in 10.0 mi Calm Calm - 0.00 in Rain Light Rain
8:53 PM 62.1 °F 55.0 °F 78% 30.22 in 10.0 mi Calm Calm - 0.00 in   Overcast
9:53 PM 63.0 °F 55.0 °F 75% 30.22 in 10.0 mi SSW 4.6 mph - N/A   Overcast
10:06 PM 62.1 °F 55.0 °F 78% 30.23 in 10.0 mi SSW 3.5 mph - N/A   Overcast
10:53 PM 62.1 °F 55.0 °F 78% 30.22 in 10.0 mi Variable 5.8 mph - N/A   Overcast
11:53 PM 61.0 °F 55.0 °F 81% 30.20 in 10.0 mi SSW 4.6 mph - N/A   Overcast